FW1256 Weather Reports


Display with metric or nautical units.
time (UTC)temp
F
wind
direction
speed
MPH
gust
MPH
rain 1hr
in
rain 24hr
in
rain mn
in
humidity
%
barometer
mb
20260504081622 53 8 0.0 2.0 0.00 0.00 0.00 82 1006.1
20260504081118 53 331 0.0 3.0 0.00 0.00 0.00 82 1006.3
20260504080615 53 69 0.0 3.0 0.00 0.00 0.00 81 1006.4
20260504080111 53 32 0.0 3.0 0.00 0.00 0.00 81 1006.5
20260504050427 53 66 1.0 3.0 0.00 0.00 0.00 78 1007.6
20260504045924 53 261 0.0 3.0 0.00 0.00 0.00 78 1007.7
20260504045420 53 352 0.0 2.0 0.00 0.00 0.00 74 1007.8
20260504044916 54 97 0.0 1.0 0.00 0.00 0.00 74 1007.9
20260504044414 54 0 0.0 1.0 0.00 0.00 0.00 73 1008.0
20260504043911 54 81 0.0 1.0 0.00 0.00 0.00 73 1008.0
20260504043408 54 90 1.0 2.0 0.00 0.00 0.00 72 1008.1
20260504042906 55 26 0.0 2.0 0.00 0.00 0.00 72 1008.1
20260504042402 55 90 0.0 2.0 0.00 0.00 0.00 71 1007.9
20260504041858 55 75 1.0 2.0 0.00 0.00 0.00 72 1008.0
20260504041354 55 345 0.0 1.0 0.00 0.00 0.00 71 1008.0
20260504040850 55 12 0.0 3.0 0.00 0.00 0.00 71 1008.1
20260504040348 55 0 0.0 1.0 0.00 0.00 0.00 71 1008.1
20260504035844 55 0 0.0 0.0 0.00 0.00 0.00 70 1008.0
20260504035342 55 0 0.0 2.0 0.00 0.00 0.00 71 1008.2
20260504034838 56 35 0.0 1.0 0.00 0.00 0.00 70 1008.1
20260504034336 56 15 0.0 2.0 0.00 0.00 0.00 70 1008.1
20260504033833 56 7 0.0 2.0 0.00 0.00 0.00 70 1008.1
20260504033331 56 15 0.0 0.0 0.00 0.00 0.00 69 1008.2
20260504032827 57 286 0.0 2.0 0.00 0.00 0.00 68 1008.3
20260504032325 57 20 0.0 1.0 0.00 0.00 0.00 68 1008.3
20260504031821 57 15 0.0 0.0 0.00 0.00 0.00 67 1008.3
20260504031319 58 15 1.0 1.0 0.00 0.00 0.00 65 1008.3
20260504030815 59 90 0.0 0.0 0.00 0.00 0.00 64 1008.3
20260504030312 59 90 0.0 0.0 0.00 0.00 0.00 63 1008.3
20260504025808 59 90 1.0 2.0 0.00 0.00 0.00 63 1008.2
20260504025305 59 15 0.0 0.0 0.00 0.00 0.00 63 1008.4
20260504024801 58 15 0.0 0.0 0.00 0.00 0.00 64 1008.3
20260504024258 58 15 0.0 0.0 0.00 0.00 0.00 65 1008.3
20260504023755 59 0 0.0 1.0 0.00 0.00 0.00 64 1008.5
20260504023252 59 90 0.0 0.0 0.00 0.00 0.00 64 1008.2
20260504022747 58 90 0.0 0.0 0.00 0.00 0.00 65 1008.4
20260504022244 59 90 0.0 1.0 0.00 0.00 0.00 65 1008.5
20260504021741 58 20 0.0 0.0 0.00 0.00 0.00 65 1008.4
20260504021238 59 20 0.0 0.0 0.00 0.00 0.00 65 1008.3
20260504020735 59 20 0.0 0.0 0.00 0.00 0.00 64 1008.2
20260504020232 59 0 0.0 0.0 0.00 0.00 0.00 64 1008.3
20260504015728 59 0 0.0 0.0 0.00 0.00 0.00 63 1008.3
20260504015224 59 0 0.0 0.0 0.00 0.00 0.00 63 1008.1
20260504014720 59 0 0.0 0.0 0.00 0.00 0.00 63 1008.2
20260504014217 59 0 0.0 0.0 0.00 0.00 0.00 64 1008.1
20260504013715 59 0 0.0 0.0 0.00 0.00 0.00 65 1008.2
20260504013212 59 0 0.0 0.0 0.00 0.00 0.00 64 1008.3
20260504012709 60 0 0.0 0.0 0.00 0.00 0.00 63 1008.1
20260504012207 61 75 0.0 0.0 0.00 0.00 0.00 61 1008.2
20260504011703 62 75 0.0 2.0 0.00 0.00 0.00 58 1008.0
20260504011200 62 345 0.0 0.0 0.00 0.00 0.00 59 1007.9
20260504010656 62 345 0.0 0.0 0.00 0.00 0.00 58 1007.9
20260504010151 62 345 0.0 0.0 0.00 0.00 0.00 57 1007.7
20260504005649 63 345 0.0 1.0 0.00 0.00 0.00 55 1008.0
20260504005145 64 90 0.0 0.0 0.00 0.00 0.00 55 1007.9
20260504004643 64 90 0.0 0.0 0.00 0.00 0.00 53 1007.9
20260504004140 65 90 0.0 0.0 0.00 0.00 0.00 52 1007.8
20260504003637 66 78 0.0 0.0 0.00 0.00 0.00 52 1007.9
20260504003133 66 78 0.0 2.0 0.00 0.00 0.00 51 1008.3
20260504002630 66 270 0.0 0.0 0.00 0.00 0.00 51 1007.9
20260504002128 66 303 2.0 3.0 0.00 0.00 0.00 49 1007.9
20260504001626 67 286 0.0 7.0 0.00 0.00 0.00 49 1008.0
20260504001121 67 345 0.0 3.0 0.00 0.00 0.00 49 1008.0
20260504000619 68 264 0.0 3.0 0.00 0.00 0.00 48 1007.7
20260504000116 68 352 7.0 7.0 0.00 0.00 0.00 46 1007.9
20260503235614 69 261 0.0 3.0 0.00 0.00 0.00 47 1007.7
20260503235110 69 265 4.0 10.0 0.00 0.00 0.00 45 1007.9
20260503234609 68 278 4.0 6.0 0.00 0.00 0.00 48 1007.9
20260503234106 69 270 1.0 3.0 0.00 0.00 0.00 49 1007.9
20260503233603 69 0 2.0 8.0 0.00 0.00 0.00 48 1007.8
20260503233058 70 315 5.0 7.0 0.00 0.00 0.00 45 1007.9
20260503232556 69 270 1.0 3.0 0.00 0.00 0.00 49 1008.1
20260503232053 68 337 0.0 5.0 0.00 0.00 0.00 48 1008.1
20260503231551 68 274 0.0 4.0 0.00 0.00 0.00 46 1008.1
20260503231047 68 261 0.0 8.0 0.00 0.00 0.00 49 1008.2
20260503230544 68 295 4.0 4.0 0.00 0.00 0.00 49 1008.2
20260503230041 69 178 4.0 9.0 0.00 0.00 0.00 47 1008.4
20260503225538 69 283 2.0 6.0 0.00 0.00 0.00 48 1008.4
20260503225039 69 191 2.0 8.0 0.00 0.00 0.00 47 1008.0
20260503224537 70 305 3.0 4.0 0.00 0.00 0.00 44 1008.3
20260503224034 70 319 7.0 7.0 0.00 0.00 0.00 44 1008.3
20260503223532 70 303 4.0 6.0 0.00 0.00 0.00 43 1008.2
20260503223027 70 303 3.0 5.0 0.00 0.00 0.00 46 1008.2
20260503222526 70 253 3.0 6.0 0.00 0.00 0.00 43 1008.2
20260503222024 70 162 1.0 7.0 0.00 0.00 0.00 45 1008.3
20260503221522 71 228 2.0 4.0 0.00 0.00 0.00 46 1008.3
20260503221019 71 261 2.0 13.0 0.00 0.00 0.00 44 1008.3
20260503220515 70 228 0.0 3.0 0.00 0.00 0.00 43 1008.4
20260503220012 70 212 2.0 3.0 0.00 0.00 0.00 43 1008.6
20260503215509 70 254 1.0 7.0 0.00 0.00 0.00 44 1008.8
20260503215006 71 283 4.0 6.0 0.00 0.00 0.00 43 1008.4
20260503214504 69 67 3.0 4.0 0.00 0.00 0.00 43 1008.4
20260503214000 68 217 0.0 7.0 0.00 0.00 0.00 43 1008.6
20260503213459 69 266 2.0 3.0 0.00 0.00 0.00 44 1008.5
20260503212955 68 251 0.0 5.0 0.00 0.00 0.00 43 1008.6
20260503212453 69 180 2.0 3.0 0.00 0.00 0.00 41 1008.6
20260503211950 70 236 3.0 4.0 0.00 0.00 0.00 46 1008.7
20260503211447 69 154 1.0 4.0 0.00 0.00 0.00 42 1008.8
20260503210942 68 236 2.0 8.0 0.00 0.00 0.00 43 1008.8
20260503210439 67 141 3.0 4.0 0.00 0.00 0.00 47 1008.8
20260503205934 68 227 3.0 3.0 0.00 0.00 0.00 45 1008.7
20260503205431 68 277 0.0 4.0 0.00 0.00 0.00 45 1008.9
20260503204927 68 206 3.0 6.0 0.00 0.00 0.00 42 1008.9
20260503204425 68 230 3.0 6.0 0.00 0.00 0.00 42 1008.9
20260503203922 67 233 2.0 4.0 0.00 0.00 0.00 45 1008.9
20260503203419 66 206 4.0 5.0 0.00 0.00 0.00 45 1008.9
20260503202916 66 209 2.0 5.0 0.00 0.00 0.00 44 1008.8
20260503202414 65 90 0.0 4.0 0.00 0.00 0.00 44 1008.9
20260503201912 66 207 3.0 5.0 0.00 0.00 0.00 44 1009.2
20260503201409 66 221 2.0 6.0 0.00 0.00 0.00 46 1009.5
20260503200906 67 240 0.0 3.0 0.00 0.00 0.00 47 1009.3
20260503200402 67 174 1.0 7.0 0.00 0.00 0.00 43 1009.2
20260503195859 66 155 4.0 5.0 0.00 0.00 0.00 44 1009.1
20260503195356 66 294 1.0 5.0 0.00 0.00 0.00 45 1009.0
20260503194853 67 230 4.0 5.0 0.00 0.00 0.00 42 1009.5
20260503194349 67 225 3.0 6.0 0.00 0.00 0.00 45 1010.0
20260503193845 67 163 3.0 4.0 0.00 0.00 0.00 43 1010.2
20260503193341 67 227 3.0 6.0 0.00 0.00 0.00 41 1009.9
20260503192837 67 216 3.0 9.0 0.00 0.00 0.00 40 1009.5
20260503192333 67 211 3.0 4.0 0.00 0.00 0.00 45 1009.5
20260503191830 65 154 2.0 8.0 0.00 0.00 0.00 42 1009.9
20260503191327 65 142 3.0 8.0 0.00 0.00 0.00 43 1009.9
20260503190823 66 203 3.0 9.0 0.00 0.00 0.00 41 1009.4
20260503190321 66 255 4.0 13.0 0.00 0.00 0.00 43 1009.7
20260503185817 66 249 4.0 8.0 0.00 0.00 0.00 40 1009.8
20260503185313 67 221 0.0 7.0 0.00 0.00 0.00 46 1009.9
20260503184808 65 297 1.0 9.0 0.00 0.00 0.00 45 1009.9
20260503184304 64 218 2.0 6.0 0.00 0.00 0.00 46 1010.0
20260503183800 65 85 2.0 6.0 0.00 0.00 0.00 42 1010.2
20260503183258 64 216 0.0 5.0 0.00 0.00 0.00 43 1010.2
20260503182755 65 155 6.0 10.0 0.00 0.00 0.00 39 1010.3
20260503182254 65 135 2.0 7.0 0.00 0.00 0.00 44 1010.8
20260503181750 64 139 4.0 13.0 0.00 0.00 0.00 38 1010.9
20260503181247 67 115 7.0 8.0 0.00 0.00 0.00 40 1010.7
20260503180744 66 167 3.0 8.0 0.00 0.00 0.00 39 1010.9
20260503180242 66 164 4.0 11.0 0.00 0.00 0.00 40 1010.8
20260503175738 67 169 5.0 8.0 0.00 0.00 0.00 41 1011.2
20260503175237 66 138 3.0 9.0 0.00 0.00 0.00 46 1011.1
20260503174732 66 197 6.0 7.0 0.00 0.00 0.00 40 1011.4
20260503174231 65 181 6.0 12.0 0.00 0.00 0.00 40 1011.7
20260503173730 65 67 0.0 20.0 0.00 0.00 0.00 43 1011.8
20260503173227 66 145 4.0 11.0 0.00 0.00 0.00 42 1012.2
20260503172724 64 239 3.0 11.0 0.00 0.00 0.00 43 1012.5
20260503172221 65 157 6.0 9.0 0.00 0.00 0.00 44 1013.0
20260503171717 64 162 1.0 6.0 0.00 0.00 0.00 44 1012.6
20260503171215 63 180 3.0 7.0 0.00 0.00 0.00 46 1012.5
20260503170711 61 128 0.0 6.0 0.00 0.00 0.00 47 1013.0
20260503170208 61 294 0.0 6.0 0.00 0.00 0.00 46 1013.1
20260503160130 60 151 3.0 19.0 0.00 0.00 0.00 47 1013.9
20260503150600 58 326 3.0 3.0 0.00 0.00 0.00 52 1014.9
20260503130949 49 45 2.0 2.0 0.00 0.00 0.00 72 1016.5
20260503130447 49 352 0.0 2.0 0.00 0.00 0.00 72 1016.7
20260503110344 43 15 0.0 2.0 0.00 0.00 0.00 77 1016.3
20260503090229 44 90 0.0 2.0 0.00 0.00 0.00 72 1017.0